Find Starlink 30290

NORAD ID: 57858 Int'l Des: 2023-141 Owner: SPXS Country: US Constellation: starlink operational
LEOCIRCULAR

实时位置

正在加载3D地球...

关于 Starlink 30290

正在加载描述...

即将过境

Passes for default location (London). Set your location on the main map for personalized predictions.

高度历史

Loading altitude history...

两行轨道根数

1 57858U 23141U 26125.07543292 -.00002014 00000-0 -55910-4 0 9995
2 57858 53.1615 22.0212 0001141 78.3255 281.7874 15.30183458148965
Epoch: May 5, 2026 • Age: 14 hours

当前状态

高度 486.2 km
速度 7.62 km/s
星下点 -33.05°S, 135.09°E
发射日期 Sep 12, 2023
运行时间 2.6 years
类型 internet

技术详情

分类 Payload
质量 730.00 kg
干质量 700.00 kg
总质量 730.00 kg
长度 0.30 m
直径 4.10 m
跨度 29.00 m
形状 Box + pan
制造商 SPXS
平台类型 Starlink V2M
阶段状态 In Orbit
所有者/国家 SPXS/US

Most Searched